Madison, SD

11:08 PM CDT on October 23, 2017 (GMT -0500)
Madison Municipal

Weather History for KMDS - January, 2013

Change the Weather History Date:

Tuesday, January 1, 2013

  Actual Average Record
Temperature  
Mean Temperature 12 °F -  
Max Temperature 19 °F 19 °F 28 °F (2012)
Min Temperature 6 °F 2 °F -13 °F (2014)
Degree Days  
Heating Degree Days 52    
Moisture  
Dew Point 15 °F    
Average Humidity 100    
Maximum Humidity 100    
Minimum Humidity 100    
Precipitation  
Precipitation 0.00 in - - ()
Sea Level Pressure  
Sea Level Pressure 30.09 in    
Wind  
Wind Speed 9 mph (SSW)    
Max Wind Speed 15 mph    
Max Gust Speed 20 mph    
Visibility 10 miles    
Events      
Averages and records for this station are not official NWS values.
T = Trace of Precipitation, MM = Missing Value Source: NWS Daily Summary

Daily Weather History Graph

Daily Weather History Graph

Search for Another Location

Airport or City:

Trip Planner

Search our weather history database for the weather conditions in past years. The results will help you decide how hot, cold, wet, or windy it might be!

Date:

Astronomy

Jan. 01, 2013 Rise Set
Actual Time 8:03 AM CST 5:01 PM CST
Civil Twilight 7:30 AM CST 5:34 PM CST
Nautical Twilight 6:53 AM CST 6:10 PM CST
Astronomical Twilight 6:18 AM CST 6:45 PM CST
Moon 9:43 PM CST (1/1) 10:06 AM CST (1/1)
Length of Visible Light 10h 03m
Length of Day
8h 58m
Waning Gibbous, 83% of the Moon is Illuminated
Jan 1
Waning Gibbous
Jan 4
Last Quarter
Jan 11
New
Jan 18
First Quarter
Jan 26
Full

Hourly Weather History & Observations

Time (CST) Temp. Windchill Dew Point Humidity Pressure Visibility Wind Dir Wind Speed Gust Speed Precip Events Conditions
12:00 AM 6.8 °F -4.8 °F 6.8 °F 100% 30.18 in 10.0 mi South 6.9 mph - N/A   Overcast
12:20 AM 6.8 °F -6.9 °F 6.8 °F 100% 30.18 in 10.0 mi South 9.2 mph - N/A   Overcast
12:40 AM 6.8 °F -5.9 °F 6.8 °F 100% 30.18 in 10.0 mi South 8.1 mph - N/A   Overcast
1:00 AM 8.6 °F -4.7 °F 8.6 °F 100% 30.18 in 10.0 mi South 9.2 mph - N/A   Overcast
1:20 AM 8.6 °F -4.7 °F 8.6 °F 100% 30.18 in 10.0 mi South 9.2 mph - N/A   Overcast
1:40 AM 8.6 °F 0.1 °F 8.6 °F 100% 30.18 in 10.0 mi SSW 4.6 mph - N/A   Overcast
2:00 AM 8.6 °F 2.0 °F 8.6 °F 100% 30.19 in 10.0 mi SSW 3.5 mph - N/A   Overcast
2:20 AM 8.6 °F -1.3 °F 8.6 °F 100% 30.19 in 10.0 mi South 5.8 mph - N/A   Overcast
2:40 AM 8.6 °F -2.6 °F 8.6 °F 100% 30.19 in 10.0 mi SSW 6.9 mph - N/A   Overcast
3:00 AM 10.4 °F -2.4 °F 10.4 °F 100% 30.18 in 10.0 mi SSW 9.2 mph - N/A   Overcast
3:20 AM 10.4 °F -2.4 °F 10.4 °F 100% 30.18 in 10.0 mi SW 9.2 mph - N/A   Overcast
3:40 AM 10.4 °F -3.3 °F 10.4 °F 100% 30.17 in 10.0 mi SSW 10.4 mph - N/A   Overcast
4:00 AM 10.4 °F -3.3 °F 10.4 °F 100% 30.17 in 10.0 mi SSW 10.4 mph - N/A   Overcast
4:20 AM 10.4 °F -1.5 °F 10.4 °F 100% 30.17 in 10.0 mi SW 8.1 mph - N/A   Overcast
4:40 AM 10.4 °F 0.8 °F 10.4 °F 100% 30.17 in 10.0 mi SW 5.8 mph - N/A   Overcast
5:00 AM 10.4 °F - 10.4 °F 100% 30.17 in 10.0 mi Calm Calm - N/A   Overcast
5:20 AM 12.2 °F -1.0 °F 12.2 °F 100% 30.16 in 10.0 mi WSW 10.4 mph - N/A   Overcast
5:40 AM 14.0 °F 1.2 °F 14.0 °F 100% 30.16 in 10.0 mi SW 10.4 mph - N/A   Overcast
6:00 AM 14.0 °F 2.0 °F 14.0 °F 100% 30.16 in 10.0 mi WSW 9.2 mph - N/A   Overcast
6:20 AM 15.8 °F 2.1 °F 15.8 °F 100% 30.15 in 10.0 mi WSW 12.7 mph - N/A   Overcast
6:40 AM 15.8 °F 5.1 °F 15.8 °F 100% 30.15 in 10.0 mi SW 8.1 mph - N/A   Overcast
7:00 AM 15.8 °F 7.2 °F 15.8 °F 100% 30.15 in 10.0 mi WSW 5.8 mph - N/A   Overcast
7:20 AM 15.8 °F 6.1 °F 15.8 °F 100% 30.15 in 10.0 mi SW 6.9 mph - N/A   Overcast
7:40 AM 15.8 °F 4.2 °F 15.8 °F 100% 30.15 in 10.0 mi SW 9.2 mph - N/A   Overcast
8:00 AM 15.8 °F 7.2 °F 15.8 °F 100% 30.15 in 10.0 mi SW 5.8 mph - N/A   Overcast
8:20 AM 15.8 °F 7.2 °F 15.8 °F 100% 30.15 in 10.0 mi SSW 5.8 mph - N/A   Overcast
8:40 AM 15.8 °F 6.1 °F 15.8 °F 100% 30.15 in 10.0 mi SSW 6.9 mph - N/A   Overcast
9:00 AM 15.8 °F 4.2 °F 15.8 °F 100% 30.15 in 10.0 mi SW 9.2 mph - N/A   Overcast
9:20 AM 15.8 °F 5.1 °F 15.8 °F 100% 30.15 in 10.0 mi SW 8.1 mph - N/A   Overcast
9:40 AM 15.8 °F 4.2 °F 15.8 °F 100% 30.15 in 10.0 mi SW 9.2 mph - N/A   Overcast
10:00 AM 15.8 °F 3.4 °F 15.8 °F 100% 30.15 in 10.0 mi SW 10.4 mph - N/A   Overcast
10:20 AM 15.8 °F 5.1 °F 15.8 °F 100% 30.15 in 10.0 mi SW 8.1 mph - N/A   Overcast
10:40 AM 17.6 °F 8.2 °F 17.6 °F 100% 30.14 in 10.0 mi SW 6.9 mph - N/A   Overcast
11:00 AM 17.6 °F 5.7 °F 17.6 °F 100% 30.13 in 10.0 mi SSW 10.4 mph - N/A   Overcast
11:20 AM 17.6 °F 5.7 °F 17.6 °F 100% 30.13 in 10.0 mi SW 10.4 mph - N/A   Overcast
11:40 AM 17.6 °F 5.0 °F 17.6 °F 100% 30.13 in 10.0 mi SW 11.5 mph - N/A   Overcast
12:00 PM 17.6 °F 4.3 °F 17.6 °F 100% 30.12 in 10.0 mi SSW 12.7 mph - N/A   Overcast
12:20 PM 17.6 °F 3.7 °F 17.6 °F 100% 30.11 in 3.0 mi SSW 13.8 mph - N/A   Overcast
12:40 PM 17.6 °F 5.0 °F 17.6 °F 100% 30.10 in 3.0 mi SSW 11.5 mph - N/A   Overcast
1:00 PM 17.6 °F 4.3 °F 17.6 °F 100% 30.09 in 1.8 mi SSW 12.7 mph - N/A   Overcast
1:20 PM 17.6 °F 4.3 °F 17.6 °F 100% 30.08 in 2.5 mi SSW 12.7 mph - N/A   Overcast
1:40 PM 17.6 °F 4.3 °F 17.6 °F 100% 30.08 in 6.0 mi SSW 12.7 mph - N/A   Overcast
2:00 PM 17.6 °F 3.7 °F 17.6 °F 100% 30.07 in 10.0 mi SSW 13.8 mph - N/A   Overcast
2:20 PM 19.4 °F 6.6 °F 19.4 °F 100% 30.06 in 10.0 mi SSW 12.7 mph - N/A   Overcast
2:40 PM 19.4 °F 7.2 °F 19.4 °F 100% 30.06 in 10.0 mi SSW 11.5 mph - N/A   Overcast
3:00 PM 19.4 °F 6.6 °F 19.4 °F 100% 30.06 in 10.0 mi SW 12.7 mph - N/A   Overcast
3:20 PM 19.4 °F 6.0 °F 19.4 °F 100% 30.06 in 10.0 mi SW 13.8 mph 17.3 mph N/A   Overcast
3:40 PM 19.4 °F 6.0 °F 19.4 °F 100% 30.05 in 10.0 mi SSW 13.8 mph - N/A   Overcast
4:00 PM 19.4 °F 6.0 °F 19.4 °F 100% 30.05 in 10.0 mi SW 13.8 mph - N/A   Overcast
4:20 PM 19.4 °F 5.5 °F 19.4 °F 100% 30.04 in 10.0 mi SW 15.0 mph 19.6 mph N/A   Overcast
4:40 PM 19.4 °F 7.2 °F 19.4 °F 100% 30.03 in 10.0 mi SW 11.5 mph - N/A   Overcast
5:00 PM 19.4 °F 7.9 °F 19.4 °F 100% 30.03 in 10.0 mi SW 10.4 mph - N/A   Overcast
5:20 PM 17.6 °F 5.7 °F 17.6 °F 100% 30.03 in 10.0 mi SSW 10.4 mph - N/A   Mostly Cloudy
5:40 PM 15.8 °F 4.2 °F 15.8 °F 100% 30.03 in 10.0 mi SW 9.2 mph - N/A   Clear
6:00 PM 15.8 °F 5.1 °F 15.8 °F 100% 30.02 in 10.0 mi SW 8.1 mph - N/A   Clear
6:20 PM 15.8 °F 1.4 °F 15.8 °F 100% 30.01 in 10.0 mi SW 13.8 mph - N/A   Clear
6:40 PM 15.8 °F 2.7 °F 15.8 °F 100% 30.01 in 10.0 mi SSW 11.5 mph - N/A   Mostly Cloudy
7:00 PM 15.8 °F 3.4 °F 15.8 °F 100% 30.01 in 8.0 mi SW 10.4 mph - N/A   Overcast
7:20 PM 14.0 °F 2.0 °F 14.0 °F 100% 30.00 in 10.0 mi SSW 9.2 mph - N/A   Scattered Clouds
7:40 PM 14.0 °F -0.8 °F 14.0 °F 100% 30.00 in 10.0 mi SSW 13.8 mph - N/A   Clear
8:00 PM 14.0 °F -0.2 °F 14.0 °F 100% 29.99 in 10.0 mi SSW 12.7 mph - N/A   Clear
8:20 PM 14.0 °F 2.0 °F 14.0 °F 100% 29.99 in 10.0 mi SSW 9.2 mph - N/A   Clear
8:40 PM 14.0 °F 1.2 °F 14.0 °F 100% 29.98 in 10.0 mi SSW 10.4 mph - N/A   Clear
9:00 PM 14.0 °F 0.5 °F 14.0 °F 100% 29.98 in 10.0 mi SSW 11.5 mph - N/A   Clear
9:20 PM 14.0 °F 1.2 °F 14.0 °F 100% 29.97 in 10.0 mi SSW 10.4 mph - N/A   Clear
9:40 PM 14.0 °F 2.0 °F 14.0 °F 100% 29.97 in 10.0 mi SSW 9.2 mph - N/A   Clear
10:00 PM 14.0 °F 2.0 °F 14.0 °F 100% 29.96 in 10.0 mi SSW 9.2 mph - N/A   Clear
10:20 PM 12.2 °F -0.2 °F 12.2 °F 100% 29.96 in 10.0 mi SSW 9.2 mph - N/A   Clear
10:40 PM 14.0 °F 2.9 °F 14.0 °F 100% 29.96 in 10.0 mi SSW 8.1 mph - N/A   Clear
11:00 PM 14.0 °F 2.9 °F 14.0 °F 100% 29.96 in 10.0 mi SW 8.1 mph - N/A   Clear
11:20 PM 14.0 °F 3.9 °F 14.0 °F 100% 29.96 in 10.0 mi SW 6.9 mph - N/A   Clear
11:40 PM 14.0 °F 2.0 °F 14.0 °F 100% 29.95 in 10.0 mi WSW 9.2 mph - N/A   Clear